Starlink 32246

operational
NORAD ID: 60432 Int'l Des: 2024-144 Owner: SPXS Country: US Constellation: starlink
LEOCIRCULAR

Über Starlink 32246

Beschreibung wird geladen...

Live-Position

3D-Globus wird geladen...

Nächste Überflüge

Höhenverlauf

Altitude vs Time

uPlot chart will show altitude changes over time

Zweizeiliger Elementsatz

1 60432U 24144H 25352.08192350 -.00000371 00000-0 -40367-6 0 9994
2 60432 53.1604 236.2653 0001430 72.6416 287.4741 15.30192109 76813
Epoch: 18. Dez. 2025 • Age: 18 hours

Aktueller Status

Höhe 477.7 km
Geschwindigkeit 7.63 km/s
Subsatellitenpunkt -6.85°S, 29.78°E
Startdatum 12. Aug. 2024
Alter 1.3 years
Typ internet

Technische Details

Klassifizierung Payload
Masse 730.00 kg
Trockenmasse 700.00 kg
Gesamtmasse 730.00 kg
Länge 0.30 m
Durchmesser 4.10 m
Spannweite 29.00 m
Form Box + pan
Hersteller SPXS
Bus-Typ Starlink V2M
Phasenstatus In Orbit
Besitzer/Staat SPXS/US

Große Konstellationen

Loading constellations...